This demonstration page uses our WeatherBlox Daily Observations layout. Learn more.

Left ArrowRight Arrow

Hourly Observations for April 25, 2020

Temp ( °F °C ) Dew Point ( °F °C ) Humidity (%) Winds ( mph kmh ) Pressure ( in mb ) Visibility ( mi km ) Precip ( " mm )
12:15 am 00:15 Clear 47 8.3 42 5.3 82 82 NW 9 15 30.06 1018 10 16.0934 0 0
12:35 am 00:35 Clear 46 8 42 5.3 83 83 NW 9 15 30.06 1018 10 16.0934 0 0
12:55 am 00:55 Clear 47 8.4 42 5.5 82 82 NW 10 17 30.06 1018 10 16.0934 0 0
1:15 am 01:15 Clear 46 7.9 41 5 82 82 NW 8 13 30.07 1018 10 16.0934 0 0
1:35 am 01:35 Clear 46 7.9 41 5 82 82 NW 7 11 30.07 1018 10 16.0934 0 0
1:55 am 01:55 Clear 46 7.6 41 5 84 84 NW 7 11 30.08 1019 10 16.0934 0 0
2:15 am 02:15 Clear 45 7.1 40 4.7 85 85 WNW 8 13 30.09 1019 10 16.0934 0 0
2:35 am 02:35 Clear 44 6.4 40 4.5 88 88 NW 7 11 30.09 1019 10 16.0934 0 0
2:55 am 02:55 Clear 43 6 39 4.1 88 88 NW 8 13 30.08 1019 10 16.0934 0 0
3:15 am 03:15 Clear 43 6.1 39 4.1 87 87 NW 7 11 30.08 1019 10 16.0934 0 0
3:35 am 03:35 Clear 44 6.5 40 4.2 85 85 NW 8 13 30.07 1018 10 16.0934 0 0
3:55 am 03:55 Clear 45 7 39 4.1 82 82 NW 9 15 30.07 1018 10 16.0934 0 0
4:15 am 04:15 Clear 44 6.5 39 3.8 83 83 NNW 8 13 30.08 1019 10 16.0934 0 0
4:35 am 04:35 Clear 43 6.2 39 3.7 84 84 NW 8 13 30.1 1019 10 16.0934 0 0
4:55 am 04:55 Clear 42 5.8 38 3.5 85 85 NW 7 11 30.1 1019 10 16.0934 0 0
5:15 am 05:15 Clear 42 5.4 38 3.2 86 86 NW 6 9 30.1 1019 10 16.0934 0 0
5:35 am 05:35 Clear 40 4.7 37 2.9 88 88 WNW 5 7 30.12 1020 10 16.0934 0 0
5:55 am 05:55 Clear 40 4.7 37 2.9 88 88 NW 6 9 30.12 1020 10 16.0934 0 0
6:15 am 06:15 Partly Cloudy 40 4.7 38 3.1 90 90 NW 8 13 30.12 1020 10 16.0934 0 0
6:35 am 06:35 Mostly Cloudy 41 5 38 3.1 88 88 NW 6 9 30.12 1020 10 16.0934 0 0
6:55 am 06:55 Partly Cloudy 41 4.8 38 3.1 89 89 NW 6 9 30.13 1020 10 16.0934 0 0
7:15 am 07:15 Sunny 41 4.8 37 3 88 88 NW 8 13 30.13 1020 10 16.0934 0 0
7:35 am 07:35 Sunny 41 5.2 38 3.4 88 88 NW 9 15 30.14 1021 10 16.0934 0 0
7:55 am 07:55 Sunny 42 5.5 38 3.4 87 87 NW 8 13 30.13 1020 10 16.0934 0 0
8:15 am 08:15 Sunny 42 5.7 39 3.7 87 87 NW 8 13 30.15 1021 10 16.0934 0 0
8:35 am 08:35 Sunny 46 7.7 41 4.8 82 82 NW 9 15 30.13 1020 10 16.0934 0 0
8:55 am 08:55 Sunny 50 9.9 42 5.5 74 74 NNW 10 17 30.11 1020 10 16.0934 0 0
9:15 am 09:15 Sunny 52 10.9 42 5.4 69 69 NNW 12 19 30.11 1020 10 16.0934 0 0
9:35 am 09:35 Sunny 53 11.8 42 5.6 66 66 NNW 12 19 30.12 1020 10 16.0934 0 0
9:55 am 09:55 Sunny 55 12.7 41 5 60 60 N 15 24 30.11 1020 10 16.0934 0 0
10:15 am 10:15 Sunny 57 13.7 40 4.6 54 54 N 16 26 30.1 1019 10 16.0934 0 0
10:35 am 10:35 Sunny 58 14.5 40 4.6 52 52 N 16 26 30.1 1019 10 16.0934 0 0
10:55 am 10:55 Sunny 59 14.8 40 4.7 51 51 NNW 13 20 30.1 1019 10 16.0934 0 0
11:15 am 11:15 Partly Cloudy 60 15.6 40 4.2 47 47 N 15 24 30.09 1019 10 16.0934 0 0
11:35 am 11:35 Mostly Cloudy 61 16.2 40 4.2 45 45 NNW 16 26 30.09 1019 10 16.0934 0 0
11:55 am 11:55 Partly Cloudy 62 16.5 39 3.7 43 43 N 13 20 30.09 1019 10 16.0934 0 0
12:15 pm 12:15 Partly Cloudy 62 16.5 37 2.7 40 40 N 14 22 30.09 1019 10 16.0934 0 0
12:35 pm 12:35 Partly Cloudy 63 17.3 35 1.5 35 35 NW 16 26 30.08 1019 10 16.0934 0 0
12:55 pm 12:55 Partly Cloudy 63 17.4 33 0.8 33 33 NW 13 20 30.07 1018 10 16.0934 0 0
1:15 pm 13:15 Mostly Cloudy 64 17.5 33 0.7 32 32 NNW 16 26 30.07 1018 10 16.0934 0 0
1:35 pm 13:35 Mostly Cloudy 64 17.7 34 1.2 33 33 NNW 13 20 30.07 1018 10 16.0934 0 0
1:55 pm 13:55 Mostly Cloudy 62 16.8 33 0.4 33 33 NW 12 19 30.06 1018 10 16.0934 0 0
2:15 pm 14:15 Mostly Cloudy 65 18.4 32 0 29 29 WNW 15 24 30.05 1018 10 16.0934 0 0
2:35 pm 14:35 Mostly Cloudy 65 18.2 32 0 29 29 NW 15 24 30.04 1017 10 16.0934 0 0
2:55 pm 14:55 Mostly Cloudy 63 17.2 31 -0.4 30 30 NW 12 19 30.05 1018 10 16.0934 0 0
3:15 pm 15:15 Partly Cloudy 67 19.3 32 -0.1 27 27 N 10 17 30.02 1017 10 16.0934 0 0
3:35 pm 15:35 Partly Cloudy 65 18.2 30 -1.3 27 27 NNW 13 20 30.03 1017 10 16.0934 0 0
3:55 pm 15:55 Partly Cloudy 67 19.2 30 -1 26 26 NW 21 33 30.01 1016 10 16.0934 0 0
4:15 pm 16:15 Partly Cloudy 67 19.3 29 -1.9 24 24 NNW 14 22 30.01 1016 10 16.0934 0 0
4:35 pm 16:35 Mostly Cloudy 67 19.7 29 -1.4 24 24 NW 10 17 30.01 1016 10 16.0934 0 0
4:55 pm 16:55 Partly Cloudy 65 18.3 28 -2.3 25 25 NNW 14 22 30.01 1016 10 16.0934 0 0
5:15 pm 17:15 Partly Cloudy 66 18.9 27 -2.6 23 23 NNW 12 19 30.01 1016 10 16.0934 0 0
5:35 pm 17:35 Partly Cloudy 66 18.8 27 -2.7 23 23 NW 13 20 30.01 1016 10 16.0934 0 0
5:55 pm 17:55 Sunny 66 18.7 28 -2.3 24 24 N 15 24 30.01 1016 10 16.0934 0 0
6:15 pm 18:15 Sunny 65 18.5 27 -2.6 24 24 NNW 12 19 30.02 1017 10 16.0934 0 0
6:35 pm 18:35 Sunny 65 18.4 28 -2.4 24 24 N 13 20 30.02 1017 10 16.0934 0 0
6:55 pm 18:55 Sunny 64 18 27 -2.7 24 24 NNW 14 22 30.02 1017 10 16.0934 0 0
7:15 pm 19:15 Sunny 64 17.7 28 -2.4 25 25 NNW 14 22 30.03 1017 10 16.0934 0 0
7:35 pm 19:35 Sunny 63 17.2 27 -2.8 26 26 N 7 11 30.04 1017 10 16.0934 0 0
7:55 pm 19:55 Sunny 61 16.2 28 -2.5 28 28 N 8 13 30.05 1018 10 16.0934 0 0
8:15 pm 20:15 Sunny 59 15.1 28 -2.5 30 30 N 7 11 30.06 1018 10 16.0934 0 0
8:35 pm 20:35 Clear 57 13.7 28 -2.5 33 33 N 3 6 30.07 1018 10 16.0934 0 0
8:55 pm 20:55 Clear 55 12.8 28 -2.5 35 35 NNW 3 6 30.09 1019 10 16.0934 0 0
9:15 pm 21:15 Clear 51 10.3 28 -2.5 41 41 N 5 7 30.11 1020 10 16.0934 0 0
9:35 pm 21:35 Clear 50 10.2 28 -2.4 42 42 Calm 30.13 1020 10 16.0934 0 0
9:55 pm 21:55 Clear 49 9.6 28 -2.3 44 44 Calm 30.14 1021 10 16.0934 0 0
10:15 pm 22:15 Clear 49 9.6 28 -2 45 45 Calm 30.14 1021 10 16.0934 0 0
10:35 pm 22:35 Clear 47 8.2 28 -2 49 49 Calm 30.15 1021 10 16.0934 0 0
10:55 pm 22:55 Clear 45 7.4 29 -1.4 54 54 Calm 30.17 1022 10 16.0934 0 0
11:15 pm 23:15 Clear 45 7 29 -1.7 54 54 Calm 30.16 1021 10 16.0934 0 0
11:35 pm 23:35 Clear 44 6.5 29 -1.8 56 56 Calm 30.16 1021 10 16.0934 0 0
11:55 pm 23:55 Clear 40 4.3 29 -1.8 65 65 NNE 3 6 30.18 1022 10 16.0934 0 0

Powered by AerisWeather